Overview Statistics Trail Chart Weather Telemetry Raw packets
 

This is the latest recevied weather packets stored in our database for station/object N0HOT. If no packets are shown the sender has not sent any weather packets the latest 10 day(s).

<< 15 16 17 18 19 20 21 >>
Time Temp. Humidity Pressure Rain* Wind** Luminosity Snow
1788548007 30° C 64% 1011.5 hPa 0 mm - 785 W/m² -
1788547707 30° C 63% 1011.5 hPa 0 mm - 713 W/m² -
1788547402 30° C 67% 1011.8 hPa 0 mm - 666 W/m² -
1788547097 30° C 71% 1011.5 hPa 0 mm - 668 W/m² -
1788546792 30° C 69% 1011.8 hPa 0 mm - 197 W/m² -
1788546487 30° C 71% 1011.8 hPa 0 mm - 586 W/m² -
1788546182 30° C 69% 1011.8 hPa 0 mm - 395 W/m² -
1788545878 30° C 71% 1011.5 hPa 0 mm - 213 W/m² -
1788545578 29.44° C 69% 1011.5 hPa 0 mm - 182 W/m² -
1788545273 28.89° C 70% 1011.5 hPa 0 mm - 596 W/m² -
1788544969 28.33° C 72% 1011.8 hPa 0 mm - 406 W/m² -
1788544667 27.78° C 75% 1011.8 hPa 0 mm - 475 W/m² -
1788544366 27.22° C 78% 1011.8 hPa 0 mm - 683 W/m² -
1788544061 26.67° C 78% 1011.5 hPa 0 mm - 619 W/m² -
1788543757 26.67° C 81% 1011.8 hPa 0 mm - 321 W/m² -
1788543453 26.67° C 81% 1011.8 hPa 0 mm - 192 W/m² -
1788542849 26.11° C 82% 1011.5 hPa 0 mm - 91 W/m² -
1788542548 26.11° C 83% 1011.5 hPa 0 mm - 85 W/m² -
1788542243 26.11° C 83% 1011.8 hPa 0 mm - 82 W/m² -
1788541938 26.11° C 82% 1011.5 hPa 0 mm - 79 W/m² -
1788541635 26.67° C 82% 1011.5 hPa 0 mm - 81 W/m² -
1788541344 26.67° C 82% 1011.5 hPa 0 mm - 72 W/m² -
1788541029 26.67° C 81% 1011.8 hPa 0 mm - 55 W/m² -
1788540729 26.67° C 81% 1011.8 hPa 0 mm - 43 W/m² -
1788540423 26.67° C 80% 1011.5 hPa 0 mm - 35 W/m² -

* Rain latest hour (hover to see other rain measurements)
** Current wind speed in m/s (hover to see current wind gust speed)